Погода Богородицкое

Погода Богородицкое : погода сейчас, прогноз погоды и архив. Всё, что Вы хотите узнать о погоде Богородицкое!

Поиск расширенной информации на нашем сайте:

Другие новости

Новости СМИ2

Главная страница сайта

Новости сайта

02.10.2013

Напоминаем, что на нашем новом сайте вы можете получить высокодетализированные прогнозы погоды по пунктам России, СНГ и мира (включающие важные для авиации метеовеличины, такие как направление и скорость ветра, видимость, явления погоды, количество и форма облачности, нижняя и верхняя граница облачности), а также ознакомиться с разнообразными материалами по авиационной метеорологии и подборкой полезных ссылок на эту тему.

Сайт Метеоцентр.Азия посвящён разработке технологий оптимизации авиаметеорологического обслуживания, включая проектирование и перспективное создание нескольких автоматизированных авиаметеорологических систем:
- система выпуска высокодетальных прогностических карт явлений погоды для нижнего воздушного пространства по России и ближнему зарубежью;
- система верификации прогнозов TAF (выпускаемых синоптиками официальных АМСГ РФ и ближнего зарубежья) и AUTOTAF (выпускаемых сайтом Метеоцентр.Азия) - выявление ошибок, онлайн-сопоставление с фактической погодой METAR, автоматическое внесение коррективов в прогнозы при резком отклонении фактической погоды от прогноза, подсчёт оправдываемости прогнозов по элементам и в целом;
- система обработки, анализа и отображения авиаметеорологической информации для применения провайдерами метеорологической информации.


Погода Богородицкое - сегодня

Время (UTC), дата Ветер
(°,м/с) 
Видим.   Явления Облачность Т
(°С)
Тd
(°С)
f(%) Тe
(°С)
Pmin
(гПа)
dP
(гПа)
Po
(мм)
O2
(г/м3)
Тmin Tmax R s Состояние
почвы
06 21.03.17 010 (С) 20000 м    10/10 2000 м 
[Ac und]
+2.8 +1.5 91 +2  1011.5  1.5  738  294  +1.7         
09 21.03.17 320 (СЗ) 10 км  слаб. ливневой дождь  10/8 600 м кучево-дожд., средняя 
[Cb calv|Ac und]
+4.6 +2.9 89 +3  1013.5  739  292           
12 21.03.17 320 (СЗ) 20000 м  {ливн. осадки}  10/6 600 м кучево-дожд., средняя 
[Cb calv|Ac und]
+5.4 +3 84 +4  1014.2  0.8  740  292           
15 21.03.17 020 (С) 20000 м    9/5 600 м кучево-дожд., средняя 
[Cb calv|Ac trans]
+6 +3.1 82 +6  1015.1  0.9  741  292      0.3     
18 21.03.17 330 (СЗ) 10 км    9/3 600 м кучево-дожд., средняя 
[Cb calv|Ac trans]
+3.6 +2.6 93 +4  1017.3  1.9  742  295    +6  0.3     
21 21.03.17 300 (СЗ) 10 км    4/4 2000 м средняя 
[Ac trans]
+2.7 +1.1 89 +3  1018.3  0.8  743  296           
00 22.03.17 290 (З) 10 км    ясно 
+0.8 -0 94 +1  1019.3  0.8  743  299           
03 22.03.17 260 (З) 10 км    1/1 2000 м средняя 
[Ac trans]
+0.8 -0.3 92 1020  0.7  744  299  -0.1         
06 22.03.17 тихо ()   10 км    3/0 верхняя 
[Ci fib]
+3.4 +1.3 86 +3  1021.5  1.7  745  296  -1.6         
09 22.03.17 280 (З) 20000 м    3/1 1000 м верхняя 
[Cu hum|Ci fib]
+9.1 -0.9 50 +10  1020.6  -0.2  745  291           
12 22.03.17 300 (СЗ) 20000 м    10/3 2000 м средняя, верхняя 
[Ac trans|Ci fib]
+12.7 +1.9 48 +13  1019.5  -0.7  744  286           
15 22.03.17 240 (ЮЗ) 20000 м    10/4 2000 м средняя, верхняя 
[Ac trans|Ci fib]
+12.1 +5 62 +13  1019.4  -0.2  744  286           
18 22.03.17 тихо ()   10 км    3/0 верхняя 
[Ci fib]
+5.6 +3.5 86 +6  1020.4  0.3  744  293  +13         
21 22.03.17 тихо ()   10 км    3/0 верхняя 
[Ci fib]
+4.1 +2.6 90 +4  1020.8  0.3  745  295           
00 23.03.17 230 (ЮЗ) 10 км    6/0 верхняя 
[Ci fib]
+4.2 +1.4 82 +5  1020.8  745  295           
03 23.03.17 210 (ЮЗ) 10 км    9/9 2000 м средняя 
[Ac trans]
+4.4 +1.9 84 +5  1020.7  -0.1  745  295  +2.6         
06 23.03.17 220 (ЮЗ) 20000 м    9/9 2000 м средняя 
[Ac trans]
+6.4 +2.5 76 +6  1020.5  745  293  +2.6         
09 23.03.17 280 (З) 20000 м    10/10 570 м 
[St]
+8.8 +3.4 69 +8  1021.1  0.9  745  290           
12 23.03.17 320 (СЗ) 20000 м  {дождь}  10/10 630 м 
[St]
+7.3 +5.5 88 +7  1022.3  746  292           
15 23.03.17 360 (С) 20000 м    10/4 600 м кучево-дожд., средняя 
[Cb calv|Ac und]
+7.2 +4.6 84 +6  1023.3  747  292      0.4     
18 23.03.17 360 (С) 10 км    3/3 2000 м средняя 
[Ac trans]
+3.5 +2.5 93 +4  1025.5  1.7  748  297    +9.3  0.4     
21 23.03.17 тихо ()   10 км    1/1 2000 м средняя 
[Ac trans]
-0.1 -1 94 -0  1026.4  0.6  749  302           
00 24.03.17 тихо ()   10 км    9/9 2000 м средняя 
[Ac trans]
+1.1 +0.3 94 +1  1026.4  0.1  749  300           
03 24.03.17 тихо ()   10 км    9/9 2000 м средняя 
[Ac trans]
+0.6 -0.2 94 +1  1025.6  -0.9  748  301  -0.7         
06 24.03.17 130 (ЮВ) 20000 м    8/0 верхняя 
[Ci fib]
+4.1 +2.1 87 +5  1024.2  -1  747  296  -0.7         
Время (UTC), дата Ветер
(°,м/с) 
Видим.   Явления Облачность Т
(°С)
Тd
(°С)
f(%) Тe
(°С)
Pmin
(гПа)
dP
(гПа)
Po
(мм)
O2
(г/м3)
Тmin Tmax R s Состояние
почвы

Для получения пояснительной информации подведите курсор к названию столбца.

ПОГОДА Богородицкое - архив

Всё, что Вы хотите узнать о погоде Богородицкое - удобно и подробно!

Выберите нужную дату (начиная с 1 января 2015* года) и нажмите кнопку "Найти".
Будут отображены архивные сводки погоды по пункту Богородицкое, начиная с указанной даты.


Отображать данные в формате CSV (для использования в таблицах Excel)


Внимание! Наш архив погоды предназначен исключительно для личного некоммерческого использования в познавательных целях. Если Вам необходимы официальные справки о состоянии погоды (для производственных, юридических, коммерческих и т.п. целей), обращайтесь в органы Росгидромета.

*Примечание: данная дата относится к архиву по метеостанциям СССР (Россия, СНГ, Балтия).
Архив по метеостанциям Зарубежной Европы и Азии (кроме Китая) хранится 10 дней, по другим регионам земного шара (Китай, Африка, Америка, Австралия, Океания) - 1 день.

Богородицкое - район местоположения метеостанции


Название, широта, долгота, высота метеостанции:
Богородицкое 51.17°ш. 37.35°д. 226 м над ур. моря [Российская Федерация]

Дополнительная информация

В oтличие oт бoльшинства пoгoдных сайтoв мы публикуем пoдрoбную метеoинфoрмацию в детальнoм прoфессиoнальнoм фoрмате.

Характеристики температуры и влажнoсти вoздуха измеряются на высoте 2 м в тени вдали oт зданий и деревьев.
Скoрoсть ветра измеряется на высoте 10 м (на урoвне рoста челoвека скoрoсть ветра ниже в 1.5-2 раза). Если метеoстанция нахoдится в гoрoде или в лесу, тo скoрoсть ветра занижена на 2-4 м/с пo сравнению с oткрытым местoм. Скoрoсть ветра над акватoриями крупных рек и oзёр, а также на вершинах хoлмoв на 2-5 м/с выше, чем в oбычных услoвиях.
Атмoсфернoе давление в разных тoчках местнoсти мoжет значительнo oтличаться oт давления на метеoстанции, в зависимoсти oт услoвий рельефа (при пoдъёме на 10 м давление пoнижается примернo на 1 мм рт.ст.).